Flag for Japan Weather past 2 weeks in Yokohama, Japan

Now
59 °F

Passing clouds.


Feels Like: 57 °F
Forecast: 57 / 67 °F
Wind: 12 mph from North

Location: Tokyo International Airport

Current Time: Oct 24, 2014 at 4:04:39 AM

Latest Report: Oct 24, 2014 at 3:30 AM


Visibility: N/A

Pressure: 30.12 "Hg

Humidity: 77%

Dew point: 52 °F

Location of YokohamaLocation

Historic Weather in Yokohama — Graph

°F

Yokohama temperature yesterday

Maximum temperature yesterday: 59 °F (at 11:30 AM)
Minimum temperature yesterday: 55 °F (at 7:30 AM)
Average temperature yesterday: 58 °F

Past Weeks' High & Low Weather Summary

 TemperatureHumidityPressure
High81 °F (Oct 14, 10:00 AM)100% (Oct 13, 5:50 PM)30.36 "Hg (Oct 13, 5:50 PM)
Low55 °F (Oct 23, 7:30 AM)31% (Oct 17, 12:30 PM)29.06 "Hg (Oct 14, 3:00 AM)
Average65 °F71%30.03 "Hg
* Reported Oct 9 2:00 AM — Oct 24 2:30 AM, Yokohama, Weather by CustomWeather, © 2014

Note: Actual official high and low records may vary slightly from our data, if they occured in-between our weather recording intervals... More about our weather records

Advertising

Yokohama weather history for previous 24 hours

 ConditionsComfort  
Time TempWeatherWind HumidityBarometerVisibility
2:30 AM
Oct 24
59 °FPassing clouds.8 mph77%30.12 "HgN/A
2:00 AM59 °FPassing clouds.8 mph72%30.12 "HgN/A
1:30 AM59 °FPassing clouds.7 mph72%30.12 "HgN/A
1:00 AM59 °FPassing clouds.8 mph72%30.12 "HgN/A
12:30 AM59 °FLight rain. Passing clouds.9 mph77%30.12 "HgN/A
12:00 AM59 °FLight rain. Passing clouds.10 mph77%30.12 "HgN/A
11:30 PM
Oct 23
57 °FLight rain. Passing clouds.13 mph82%30.12 "HgN/A
11:00 PM57 °FLight rain. Passing clouds.16 mph82%30.12 "HgN/A
10:30 PM59 °FLight rain. Passing clouds.14 mph77%30.12 "HgN/A
10:00 PM59 °FLight rain. Passing clouds.15 mph82%30.12 "HgN/A
9:30 PM59 °FPartly cloudy.14 mph77%30.12 "HgN/A
9:00 PM59 °FLight rain. Passing clouds.12 mph77%30.12 "HgN/A
8:30 PM59 °FScattered showers. Passing clouds.10 mph77%30.12 "HgN/A
8:00 PM59 °FLight rain. Partly cloudy.12 mph77%30.12 "HgN/A
7:30 PM59 °FLight rain. Passing clouds.15 mph82%30.12 "HgN/A
7:00 PM59 °FLight rain. Partly cloudy.15 mph82%30.12 "HgN/A
6:30 PM59 °FLight rain. Passing clouds.16 mph82%30.09 "HgN/A
6:00 PM59 °FPassing clouds.16 mph82%30.09 "HgN/A
5:30 PM59 °FPassing clouds.15 mph77%30.07 "HgN/A
5:00 PM59 °FLight rain. Passing clouds.15 mph77%30.07 "HgN/A
4:30 PM59 °FScattered showers. Partly sunny.14 mph77%30.07 "HgN/A
4:00 PM59 °FScattered showers. Broken clouds.13 mph82%30.07 "HgN/A
3:30 PM59 °FPartly sunny.14 mph77%30.07 "HgN/A
3:00 PM59 °FPartly sunny.14 mph77%30.07 "HgN/A
2:30 PM59 °FPartly sunny.14 mph72%30.07 "HgN/A
2:00 PM59 °FPartly sunny.16 mph77%30.07 "HgN/A
1:30 PM59 °FScattered showers. Partly sunny.15 mph77%30.07 "HgN/A
1:00 PM57 °FLight rain. Broken clouds.15 mph82%30.07 "HgN/A
12:30 PM57 °FLight rain. Partly sunny.18 mph82%30.04 "HgN/A
12:00 PM57 °FLight rain. Partly sunny.16 mph77%30.07 "HgN/A
11:30 AM59 °FLight rain. Partly sunny.13 mph77%30.07 "HgN/A
11:00 AM57 °FLight rain. Partly sunny.15 mph82%30.07 "HgN/A
10:30 AM57 °FLight rain. Partly sunny.15 mph82%30.07 "HgN/A
10:00 AM57 °FLight rain. Partly sunny.16 mph82%30.07 "HgN/A
9:30 AM57 °FLight rain. Broken clouds.17 mph82%30.07 "HgN/A
9:00 AM57 °FBroken clouds.17 mph82%30.07 "HgN/A
8:30 AM57 °FLight rain. Partly sunny.16 mph82%30.07 "HgN/A
8:00 AM57 °FLight rain. Overcast.17 mph88%30.07 "HgN/A
7:30 AM55 °FLight rain. Partly sunny.18 mph88%30.04 "HgN/A
7:00 AM57 °FLight rain. Partly sunny.21 mph82%30.04 "HgN/A
6:30 AM57 °FLight rain. Partly sunny.18 mph88%30.04 "HgN/A
6:00 AM57 °FLight rain. Partly sunny.21 mph88%30.01 "HgN/A
5:30 AM57 °FLight rain. Passing clouds.18 mph88%30.01 "HgN/A
5:00 AM57 °FLight rain. Passing clouds.18 mph88%30.01 "HgN/A
4:30 AM57 °FLight rain. Passing clouds.22 mph88%29.98 "HgN/A
4:00 AM57 °FLight rain. Passing clouds.20 mph88%29.98 "HgN/A
Weather by CustomWeather, © 2014

See weather overviewHow to use our weather pages